User: anonymous   Login
Location: ??
(34.9170°N, 135.5016°E)
Time: 15:53:54
(UTC+00:00)
Language:

Tiros 1 despin weight - Orbit

View from above orbital plane
View from above orbital plane
View from above satellite
View from above satellite

Ground track
Ground track

The orbit data is extracted from the following two-line orbital elements,

1   115U 60002D   21057.55553275  .00000141  00000-0  43726-4 0  9999
2   115  48.1664 132.2532 0034961 288.0522  71.6583 14.83706653250703
Epoch (UTC): 26 February 2021 13:19:58
Eccentricity: 0.0034961
inclination: 48.1664°
perigee height: 593 km
apogee height: 642 km
right ascension of ascending node: 132.2532°
argument of perigee: 288.0522°
revolutions per day: 14.83706653
mean anomaly at epoch: 71.6583°
orbit number at epoch: 25070

The dashed part of the orbit path shows where the satellite is in the earth's shadow,  

DLR